When you browse on this site, cookies collect data to enhance your experience and personalize the content and advertising you see.
Visit our Privacy Policy to learn more. By continuing to use the site, you agree to this use of cookies and data.
  • In Lithuania
  • List of Countries
  • For 7 days
  • Water Temperature
  • Weather Map
  • Weather Widgets
  • user-avatar
    Login

    Hourly Weather Yeghegnadzor

    Today, 31 May, Sunday

    Time Temperature Precipitation Wind Pressure Humidity
    00:00 +18°C° 0 mm 1 mps 652 mmHg 50%
    01:00 +18°C° 0 mm 1 mps 652 mmHg 51%
    02:00 +16°C° 0 mm 1 mps 652 mmHg 52%
    03:00 +15°C° 0 mm 1 mps 652 mmHg 56%
    04:00 +18°C° 0 mm 1 mps 652 mmHg 57%
    05:00 +19°C° 0 mm 1 mps 653 mmHg 57%
    06:00 +20°C° 0 mm 1 mps 654 mmHg 57%
    07:00 +21°C° 0 mm 1 mps 654 mmHg 50%
    08:00 +22°C° 0 mm 1 mps 654 mmHg 42%
    09:00 +24°C° 0 mm 2 mps 655 mmHg 35%
    10:00 +25°C° 0 mm 2 mps 655 mmHg 32%
    11:00 +25°C° 0 mm 3 mps 655 mmHg 30%
    12:00 +26°C° 0 mm 3 mps 655 mmHg 28%
    13:00 +26°C° 0 mm 3 mps 654 mmHg 26%
    14:00 +27°C° 0 mm 3 mps 654 mmHg 24%
    15:00 +27°C° 0 mm 3 mps 654 mmHg 23%
    16:00 +26°C° 0 mm 2 mps 653 mmHg 26%
    17:00 +26°C° 0 mm 2 mps 653 mmHg 30%
    18:00 +25°C° 0 mm 1 mps 653 mmHg 34%
    19:00 +23°C° 0 mm 2 mps 653 mmHg 37%
    20:00 +20°C° 0 mm 2 mps 652 mmHg 41%
    21:00 +17°C° 0 mm 2 mps 652 mmHg 44%
    22:00 +17°C° 0 mm 2 mps 652 mmHg 46%
    23:00 +17°C° 0 mm 2 mps 652 mmHg 48%

    Tomorrow, 1 June, Monday

    Time Temperature Precipitation Wind Pressure Humidity
    00:00 +16°C° 0 mm 2 mps 651 mmHg 49%
    01:00 +16°C° 0 mm 1 mps 651 mmHg 50%
    02:00 +15°C° 0 mm 1 mps 651 mmHg 50%
    03:00 +15°C° 0 mm 1 mps 651 mmHg 51%
    04:00 +16°C° 0 mm 1 mps 652 mmHg 52%
    05:00 +18°C° 0 mm 1 mps 652 mmHg 53%
    06:00 +19°C° 0 mm 1 mps 652 mmHg 54%
    07:00 +21°C° 0 mm 1 mps 653 mmHg 49%
    08:00 +23°C° 0 mm 2 mps 653 mmHg 43%
    09:00 +24°C° 0 mm 2 mps 653 mmHg 38%
    10:00 +25°C° 0 mm 3 mps 653 mmHg 34%
    11:00 +26°C° 0 mm 4 mps 653 mmHg 31%
    12:00 +27°C° 0 mm 4 mps 653 mmHg 27%
    13:00 +28°C° 0 mm 4 mps 653 mmHg 26%
    14:00 +28°C° 0 mm 5 mps 653 mmHg 26%
    15:00 +28°C° 0 mm 5 mps 653 mmHg 25%
    16:00 +27°C° 0 mm 4 mps 652 mmHg 28%
    17:00 +27°C° 0 mm 4 mps 652 mmHg 32%
    18:00 +26°C° 0 mm 3 mps 652 mmHg 35%
    19:00 +24°C° 0 mm 3 mps 651 mmHg 38%
    20:00 +20°C° 0 mm 2 mps 651 mmHg 40%
    21:00 +19°C° 0 mm 1 mps 651 mmHg 42%
    22:00 +19°C° 0 mm 1 mps 650 mmHg 42%
    23:00 +18°C° 0 mm 1 mps 650 mmHg 42%

    Day after tomorrow, 2 June, Tuesday

    Time Temperature Precipitation Wind Pressure Humidity
    00:00 +18°C° 0 mm 1 mps 650 mmHg 41%
    01:00 +18°C° 0 mm 1 mps 650 mmHg 42%
    02:00 +16°C° 0 mm 2 mps 650 mmHg 43%
    03:00 +16°C° 0 mm 2 mps 649 mmHg 44%
    04:00 +17°C° 0 mm 2 mps 650 mmHg 45%
    05:00 +18°C° 0 mm 2 mps 650 mmHg 46%
    06:00 +19°C° 0 mm 2 mps 650 mmHg 47%
    07:00 +21°C° 0 mm 2 mps 651 mmHg 42%
    08:00 +24°C° 0 mm 2 mps 651 mmHg 36%
    09:00 +26°C° 0 mm 3 mps 651 mmHg 31%
    10:00 +27°C° 0 mm 4 mps 651 mmHg 29%
    11:00 +28°C° 0 mm 5 mps 652 mmHg 28%
    12:00 +29°C° 0 mm 7 mps 652 mmHg 27%
    13:00 +29°C° 0 mm 6 mps 651 mmHg 27%
    14:00 +29°C° 0 mm 6 mps 651 mmHg 27%
    15:00 +29°C° 0 mm 6 mps 650 mmHg 27%
    16:00 +28°C° 0 mm 5 mps 650 mmHg 33%
    17:00 +27°C° 0 mm 3 mps 649 mmHg 38%
    18:00 +25°C° 0 mm 2 mps 649 mmHg 44%
    19:00 +23°C° 0.3 mm 2 mps 649 mmHg 48%
    20:00 +20°C° 0.3 mm 2 mps 648 mmHg 53%
    21:00 +18°C° 0.3 mm 3 mps 648 mmHg 57%
    22:00 +18°C° 0.1 mm 2 mps 648 mmHg 59%
    23:00 +17°C° 0.1 mm 2 mps 648 mmHg 60%

    3 June, Wednesday

    Time Temperature Precipitation Wind Pressure Humidity
    00:00 +17°C° 0.1 mm 2 mps 648 mmHg 62%
    01:00 +17°C° 0 mm 2 mps 648 mmHg 63%
    02:00 +16°C° 0 mm 1 mps 648 mmHg 64%
    03:00 +16°C° 0 mm 1 mps 648 mmHg 66%
    04:00 +18°C° 0 mm 1 mps 649 mmHg 64%
    05:00 +18°C° 0 mm 1 mps 650 mmHg 61%
    06:00 +19°C° 0 mm 1 mps 650 mmHg 59%
    07:00 +21°C° 0 mm 1 mps 650 mmHg 51%
    08:00 +21°C° 0 mm 2 mps 651 mmHg 43%
    09:00 +24°C° 0 mm 2 mps 651 mmHg 35%
    10:00 +25°C° 0 mm 3 mps 651 mmHg 33%
    11:00 +26°C° 0 mm 4 mps 651 mmHg 30%
    12:00 +27°C° 0 mm 5 mps 651 mmHg 28%
    13:00 +26°C° 0.1 mm 6 mps 651 mmHg 34%
    14:00 +24°C° 0.1 mm 6 mps 650 mmHg 40%
    15:00 +23°C° 0.1 mm 6 mps 650 mmHg 47%
    16:00 +22°C° 0.2 mm 5 mps 650 mmHg 50%
    17:00 +22°C° 0.2 mm 4 mps 650 mmHg 53%
    18:00 +21°C° 0.2 mm 4 mps 650 mmHg 56%
    19:00 +20°C° 0.1 mm 3 mps 650 mmHg 59%
    20:00 +19°C° 0.1 mm 3 mps 650 mmHg 62%
    21:00 +18°C° 0.1 mm 3 mps 650 mmHg 64%
    22:00 +17°C° 0 mm 3 mps 650 mmHg 63%
    23:00 +17°C° 0 mm 3 mps 650 mmHg 62%

    4 June, Thursday

    Time Temperature Precipitation Wind Pressure Humidity
    00:00 +17°C° 0 mm 3 mps 650 mmHg 61%
    01:00 +16°C° 0 mm 2 mps 650 mmHg 62%
    02:00 +16°C° 0 mm 2 mps 650 mmHg 64%
    03:00 +15°C° 0 mm 1 mps 650 mmHg 65%
    04:00 +16°C° 0 mm 1 mps 650 mmHg 62%
    05:00 +18°C° 0 mm 1 mps 651 mmHg 60%
    06:00 +19°C° 0 mm 1 mps 652 mmHg 58%
    07:00 +21°C° 0 mm 1 mps 652 mmHg 51%
    08:00 +23°C° 0 mm 2 mps 653 mmHg 43%
    09:00 +24°C° 0 mm 2 mps 653 mmHg 36%
    10:00 +25°C° 0 mm 2 mps 653 mmHg 33%
    11:00 +26°C° 0 mm 3 mps 653 mmHg 29%
    12:00 +28°C° 0 mm 4 mps 653 mmHg 26%
    13:00 +28°C° 0 mm 4 mps 653 mmHg 25%
    14:00 +28°C° 0 mm 3 mps 653 mmHg 24%
    15:00 +28°C° 0 mm 3 mps 653 mmHg 24%
    16:00 +28°C° 0 mm 2 mps 653 mmHg 28%
    17:00 +28°C° 0 mm 2 mps 653 mmHg 32%
    18:00 +28°C° 0 mm 1 mps 653 mmHg 36%
    19:00 +25°C° 0 mm 1 mps 652 mmHg 40%
    20:00 +22°C° 0 mm 1 mps 652 mmHg 43%
    21:00 +20°C° 0 mm 1 mps 652 mmHg 47%
    22:00 +19°C° 0 mm 1 mps 652 mmHg 50%
    23:00 +19°C° 0 mm 1 mps 652 mmHg 52%

    5 June, Friday

    Time Temperature Precipitation Wind Pressure Humidity
    00:00 +17°C° 0 mm 2 mps 652 mmHg 55%
    01:00 +18°C° 0 mm 1 mps 652 mmHg 54%
    02:00 +16°C° 0 mm 1 mps 652 mmHg 53%
    03:00 +16°C° 0 mm 1 mps 652 mmHg 52%
    04:00 +18°C° 0 mm 1 mps 653 mmHg 51%
    05:00 +19°C° 0 mm 1 mps 653 mmHg 51%
    06:00 +20°C° 0 mm 1 mps 654 mmHg 50%
    07:00 +22°C° 0 mm 1 mps 655 mmHg 44%
    08:00 +23°C° 0 mm 2 mps 655 mmHg 37%
    09:00 +25°C° 0 mm 2 mps 655 mmHg 31%
    10:00 +26°C° 0 mm 3 mps 655 mmHg 28%
    11:00 +27°C° 0 mm 3 mps 655 mmHg 26%
    12:00 +28°C° 0 mm 4 mps 655 mmHg 23%
    13:00 +28°C° 0 mm 3 mps 655 mmHg 23%
    14:00 +28°C° 0 mm 3 mps 655 mmHg 23%
    15:00 +28°C° 0 mm 3 mps 654 mmHg 23%
    16:00 +28°C° 0 mm 2 mps 654 mmHg 27%
    17:00 +27°C° 0 mm 2 mps 654 mmHg 30%
    18:00 +27°C° 0 mm 1 mps 654 mmHg 34%
    19:00 +24°C° 0 mm 2 mps 654 mmHg 37%
    20:00 +21°C° 0 mm 2 mps 654 mmHg 41%
    21:00 +19°C° 0 mm 2 mps 654 mmHg 45%
    22:00 +18°C° 0 mm 2 mps 654 mmHg 52%
    23:00 +17°C° 0 mm 2 mps 654 mmHg 60%
    Show more